STARLINK-1660 (46574 NORAD) Tracking and Keplerian Element Data

This shows tracking and keplerian element data for the satellite.

Feedback or suggestion? Click here.




ElementValue
Catalog46574
NameSTARLINK-1660
Epoch Orbit177
Epoch Day304.91667824
Epoch Year2020
RAAN321.9446
Inclination53.0017
Eccentricity0.0001058
Argument of Perigee69.954
Mean Anonmoly188.7025
Mean Motion15.62668464
Decay Rate0.00079861
L11 46574U 20070AU 20304.91667824 .00079861 00000-0 87231-3 0 9992
L22 46574 53.0017 321.9446 0001058 69.9540 188.7025 15.62668464 1774

Live tracking and technical data element details for STARLINK-1660 (NORAD 46574). STARLINK-1660 can be tracked NOW for your location showing map with azimuth and elevation plus other details from your city location.

Track the satellite on the map from your city or location and see movement details for azimuth, elevation, latitude, longitude, range, height, and movement on the map or in text.







IsCatalogInMostPopularTable: catalog: 46574, numindb: 3
Update: records affected: 1



GetName: 46574 STARLINK-1660

Hit Count: updated at: Sat, 31 Oct 2020 11:36:32 GMT